FW2611 Weather Reports


Display with metric or nautical units.
time (UTC)temp
F
wind
direction
speed
MPH
gust
MPH
rain 1hr
in
rain 24hr
in
rain mn
in
humidity
%
barometer
mb
20260901161533 88 173 1.0 6.0 0.00 0.00 0.00 69 1016.6
20260901160007 87 215 4.0 9.0 0.00 0.00 0.00 71 1016.8
20260901154503 87 198 4.0 13.0 0.00 0.00 0.00 72 1016.8
20260901153035 88 208 4.0 8.0 0.00 0.00 0.00 69 1017.0
20260901151508 87 173 4.0 9.0 0.00 0.00 0.00 69 1016.7
20260901150004 86 202 4.0 13.0 0.00 0.00 0.00 73 1016.7
20260901144510 86 213 5.0 9.0 0.00 0.00 0.00 72 1016.7
20260901143004 86 207 1.0 8.0 0.00 0.00 0.00 72 1016.8
20260901141504 85 246 4.0 13.0 0.00 0.00 0.00 68 1016.8
20260901140003 84 221 6.0 12.0 0.00 0.00 0.00 70 1017.2
20260901134506 83 256 6.0 11.0 0.00 0.00 0.00 74 1017.2
20260901133004 82 271 5.0 10.0 0.00 0.00 0.00 77 1017.4
20260901131504 81 263 6.0 12.0 0.00 0.00 0.00 80 1017.3
20260901130006 80 226 4.0 12.0 0.00 0.00 0.00 84 1017.6
20260901124505 79 236 4.0 11.0 0.00 0.00 0.00 87 1017.7
20260901123005 78 223 4.0 8.0 0.00 0.00 0.00 89 1017.5
20260901121507 77 259 2.0 6.0 0.00 0.00 0.00 90 1017.8
20260901120005 77 247 2.0 7.0 0.00 0.00 0.00 91 1017.7
20260901114507 76 219 2.0 6.0 0.00 0.00 0.00 91 1017.6
20260901113008 76 268 2.0 6.0 0.00 0.00 0.00 91 1017.8
20260901111510 76 240 1.0 5.0 0.00 0.00 0.00 91 1017.6
20260901110010 75 250 2.0 7.0 0.00 0.00 0.00 91 1017.5
20260901104515 75 215 2.0 7.0 0.00 0.00 0.00 91 1017.2
20260901103017 75 225 1.0 6.0 0.00 0.00 0.00 91 1017.1
20260901101515 76 223 3.0 6.0 0.00 0.00 0.00 91 1017.1
20260901100014 76 211 4.0 7.0 0.00 0.00 0.00 90 1017.2
20260901094520 76 215 3.0 8.0 0.00 0.00 0.00 90 1017.2
20260901093011 76 225 3.0 8.0 0.00 0.00 0.00 91 1017.3
20260901091516 76 195 4.0 9.0 0.00 0.00 0.00 91 1017.2
20260901090014 76 202 4.0 10.0 0.00 0.00 0.00 91 1017.2
20260901084518 76 213 4.0 8.0 0.00 0.00 0.00 91 1017.3
20260901083018 76 232 3.0 6.0 0.00 0.00 0.00 90 1017.4
20260901081517 76 209 2.0 10.0 0.00 0.00 0.00 90 1017.4
20260901080017 76 205 3.0 8.0 0.00 0.00 0.00 90 1017.5
20260901074519 76 188 3.0 9.0 0.00 0.00 0.00 90 1017.4
20260901073027 76 229 4.0 8.0 0.00 0.00 0.00 90 1017.7
20260901071518 76 214 4.0 8.0 0.00 0.01 0.00 89 1017.8
20260901070028 75 194 2.0 6.0 0.00 0.06 0.00 89 1017.6
20260901064524 75 178 3.0 7.0 0.00 0.22 0.00 89 1017.8
20260901063031 75 205 3.0 9.0 0.00 0.24 0.00 89 1018.0
20260901061526 75 164 3.0 11.0 0.00 0.24 0.00 89 1018.1
20260901060034 75 201 5.0 9.0 0.00 0.50 0.00 89 1018.2
20260901054525 75 173 3.0 6.0 0.00 0.55 0.00 89 1018.5
20260901053022 75 213 2.0 8.0 0.00 0.55 0.00 89 1018.8
20260901051506 75 216 2.0 8.0 0.00 0.55 0.00 89 1018.9
20260901050007 75 190 2.0 6.0 0.00 0.55 0.00 89 1018.8
20260901044514 75 224 2.0 7.0 0.00 0.55 0.00 89 1018.9
20260901043021 75 173 4.0 9.0 0.00 0.55 0.00 88 1018.8
20260901041526 75 197 2.0 7.0 0.00 0.55 0.00 88 1018.9
20260901040006 75 185 2.0 7.0 0.00 0.55 0.00 88 1018.8
20260901034512 75 193 2.0 9.0 0.00 0.55 0.55 88 1018.7
20260901033031 75 189 2.0 8.0 0.00 0.55 0.55 88 1018.6
20260901031532 75 199 3.0 9.0 0.00 0.55 0.55 88 1018.8
20260901030028 75 192 3.0 7.0 0.00 0.55 0.55 87 1018.9
20260901024509 75 173 3.0 7.0 0.00 0.55 0.55 87 1018.9
20260901023012 75 167 4.0 9.0 0.00 0.55 0.55 87 1019.0
20260901021535 75 200 3.0 8.0 0.00 0.55 0.55 86 1019.3
20260901020027 75 143 2.0 9.0 0.00 0.55 0.55 85 1019.2
20260901014529 75 187 5.0 10.0 0.00 0.55 0.55 85 1019.2
20260901013010 75 159 4.0 9.0 0.00 0.55 0.55 85 1019.2
20260901011521 75 150 2.0 9.0 0.00 0.55 0.55 85 1019.2
20260901010038 75 157 5.0 10.0 0.00 0.55 0.55 85 1019.0
20260901004535 75 174 2.0 8.0 0.00 0.55 0.55 85 1018.9
20260901003030 75 180 5.0 10.0 0.00 0.55 0.55 84 1018.9
20260901001511 75 173 3.0 10.0 0.00 0.55 0.55 84 1018.8
20260901000019 75 165 4.0 9.0 0.00 0.55 0.55 83 1018.9
20260831234524 75 167 3.0 8.0 0.00 0.55 0.55 82 1019.2
20260831233005 76 130 2.0 7.0 0.00 0.55 0.55 80 1019.2
20260831231512 76 103 3.0 7.0 0.00 0.55 0.55 79 1019.3
20260831230014 77 103 3.0 8.0 0.00 0.55 0.55 79 1019.5
20260831224518 77 112 1.0 4.0 0.00 0.55 0.55 78 1019.5
20260831223011 77 96 1.0 8.0 0.00 0.55 0.55 76 1019.6
20260831221511 79 89 4.0 8.0 0.00 0.55 0.55 74 1019.6
20260831220012 79 92 2.0 9.0 0.00 0.55 0.55 74 1019.8
20260831214513 77 88 4.0 10.0 0.00 0.55 0.55 76 1019.6
20260831213031 77 103 6.0 11.0 0.00 0.55 0.55 76 1019.6
20260831211507 78 111 7.0 13.0 0.00 0.55 0.55 74 1019.4
20260831210015 79 93 5.0 14.0 0.00 0.55 0.55 72 1019.6
20260831204513 81 107 7.0 14.0 0.00 0.55 0.55 69 1019.6
20260831203017 79 86 6.0 12.0 0.00 0.55 0.55 74 1019.6
20260831201535 78 94 3.0 12.0 0.00 0.55 0.55 75 1019.7
20260831200012 78 112 6.0 12.0 0.00 0.55 0.55 77 1019.9
20260831194510 78 98 5.0 11.0 0.00 0.55 0.55 77 1020.1
20260831193014 79 65 7.0 13.0 0.00 0.55 0.55 72 1020.0
20260831191523 80 70 6.0 12.0 0.00 0.55 0.55 71 1020.0
20260831190035 81 69 6.0 13.0 0.00 0.55 0.55 68 1020.1
20260831184510 84 82 9.0 14.0 0.00 0.55 0.55 64 1020.0
20260831183013 85 111 7.0 14.0 0.00 0.55 0.55 65 1020.2
20260831181520 84 101 7.0 14.0 0.00 0.55 0.55 67 1020.2
20260831180025 82 79 8.0 12.0 0.00 0.55 0.55 68 1020.2
20260831174535 82 92 5.0 12.0 0.00 0.55 0.55 69 1020.5
20260831173014 83 123 6.0 10.0 0.00 0.55 0.55 67 1020.5
20260831171523 84 104 6.0 11.0 0.00 0.55 0.55 65 1020.4
20260831170021 84 114 7.0 11.0 0.00 0.55 0.55 64 1020.3
20260831164526 84 74 6.0 11.0 0.00 0.55 0.55 65 1020.4
20260831163030 82 72 8.0 12.0 0.00 0.55 0.55 67 1020.4